contact:dominique.lefevre@mio.osupytheas.fr, maurice.libes@osupytheas.fr, didier.mallarino@osupytheas.fr
Project:EMSO http://www.emso-fr.org/EMSO-France
Depth: 2436.0 m
Title:EMSO Ligure Ouest : Data MII capteur AQUADOPP
Date,Latitude,Longitude,X_East,Y_North,Z_Up,Amplitude_X,Amplitude_Y,Amplitude_Z,Batterie,SoundSpeed,Heading,Pitch,Roll,Pressure,TIS,Speed,Direction
, degrees North, degrees East, m.s-1, m.s-1,m.s-1, 1, 1, 1, Volt, m.s-1, degree, degree, degree, dbar, degree_C, m.s-1, degree
2021-06-02T00:04:03,42.805,6.029,0.008,-0.003,0.008,102.0,103.0,101.0,13.4,1505.2,324.5,-0.8,1.8,2470.556,13.28,0.008,110.6
2021-06-02T00:07:03,42.805,6.029,-0.013,0.014,0.062,101.0,103.0,101.0,13.4,1505.2,325.7,-0.7,1.8,2470.572,13.28,0.019,317.1
2021-06-02T00:10:03,42.805,6.029,-0.015,-0.006,0.001,102.0,102.0,101.0,13.4,1505.2,328.8,-0.8,1.8,2470.569,13.28,0.016,248.2
2021-06-02T00:13:03,42.805,6.029,-0.013,0.012,0.031,103.0,102.0,100.0,13.4,1505.2,324.5,-0.7,1.8,2470.572,13.28,0.017,312.7
2021-06-02T00:16:03,42.805,6.029,0.001,-0.001,0.01,100.0,102.0,101.0,13.3,1505.2,328.5,-0.8,1.8,2470.588,13.29,0.001,135.0
2021-06-02T00:19:03,42.805,6.029,-0.009,0.011,0.021,100.0,103.0,101.0,13.4,1505.2,328.5,-0.8,1.9,2470.603,13.29,0.014,320.7
2021-06-02T00:22:03,42.805,6.029,0.002,0.012,0.011,104.0,103.0,100.0,13.4,1505.2,325.1,-0.7,1.9,2470.527,13.29,0.012,9.5
2021-06-02T00:25:03,42.805,6.029,-0.011,0.01,0.047,101.0,102.0,101.0,13.4,1505.2,325.3,-0.7,1.8,2470.587,13.29,0.014,312.3
2021-06-02T00:28:03,42.805,6.029,0.0,-0.003,0.009,101.0,101.0,101.0,13.3,1505.2,326.1,-0.8,1.8,2470.552,13.29,0.003,180.0
2021-06-02T00:31:03,42.805,6.029,0.008,-0.011,0.007,101.0,102.0,100.0,13.4,1505.2,329.6,-0.7,1.8,2470.569,13.29,0.013,144.0
2021-06-02T00:34:03,42.805,6.029,-0.032,-0.002,0.014,100.0,102.0,100.0,13.4,1505.2,328.6,-0.7,1.8,2470.592,13.29,0.032,266.4
2021-06-02T00:37:03,42.805,6.029,-0.004,-0.004,0.025,102.0,102.0,100.0,13.3,1505.2,327.0,-0.8,1.8,2470.564,13.29,0.005,225.0
2021-06-02T00:40:03,42.805,6.029,0.002,0.012,0.022,102.0,102.0,101.0,13.4,1505.2,326.5,-0.8,1.8,2470.602,13.29,0.012,9.5
2021-06-02T00:43:03,42.805,6.029,-0.003,-0.002,0.013,102.0,102.0,100.0,13.3,1505.2,329.5,-0.8,1.8,2470.615,13.29,0.003,236.3
2021-06-02T00:46:03,42.805,6.029,-0.023,0.0,0.052,101.0,103.0,100.0,13.3,1505.2,327.8,-0.7,1.8,2470.625,13.29,0.023,270.0
2021-06-02T00:49:03,42.805,6.029,-0.015,0.002,-0.005,101.0,102.0,101.0,13.3,1505.2,329.8,-0.8,1.8,2470.58,13.29,0.015,277.6
2021-06-02T00:52:03,42.805,6.029,-0.004,0.01,0.052,103.0,102.0,100.0,13.3,1505.2,324.6,-0.8,1.8,2470.602,13.29,0.01,338.2
2021-06-02T00:55:03,42.805,6.029,-0.02,-0.013,0.01,103.0,100.0,102.0,13.4,1505.2,328.6,-0.8,1.8,2470.592,13.29,0.023,237.0
2021-06-02T00:58:03,42.805,6.029,-0.004,-0.009,-0.01,101.0,102.0,101.0,13.4,1505.2,327.8,-0.8,1.8,2470.593,13.29,0.009,204.0
2021-06-02T01:04:03,42.805,6.029,-0.027,0.029,0.006,102.0,102.0,101.0,13.3,1505.2,328.5,-0.7,1.8,2470.613,13.29,0.039,317.0
2021-06-02T01:07:03,42.805,6.029,-0.005,0.001,0.011,103.0,102.0,100.0,13.4,1505.2,326.7,-0.7,1.8,2470.66,13.29,0.005,281.3
2021-06-02T01:10:03,42.805,6.029,-0.015,-0.002,0.026,102.0,101.0,100.0,13.3,1505.2,327.2,-0.8,1.9,2470.648,13.29,0.015,262.4
2021-06-02T01:13:03,42.805,6.029,0.004,0.021,0.034,101.0,102.0,101.0,13.4,1505.2,329.8,-0.7,1.8,2470.645,13.29,0.021,10.8
2021-06-02T01:16:03,42.805,6.029,-0.003,0.008,0.037,102.0,102.0,101.0,13.3,1505.2,329.1,-0.7,1.8,2470.637,13.29,0.008,339.4
2021-06-02T01:19:03,42.805,6.029,0.021,-0.014,-0.006,102.0,102.0,101.0,13.3,1505.2,325.8,-0.7,1.8,2470.624,13.29,0.025,123.7
2021-06-02T01:22:03,42.805,6.029,0.004,0.008,0.025,102.0,102.0,101.0,13.4,1505.2,325.5,-0.7,1.9,2470.63,13.29,0.008,26.6
2021-06-02T01:25:03,42.805,6.029,-0.005,-0.001,0.017,102.0,101.0,101.0,13.3,1505.2,326.1,-0.8,1.8,2470.656,13.29,0.005,258.7
2021-06-02T01:28:03,42.805,6.029,0.002,-0.015,0.0,102.0,101.0,101.0,13.3,1505.2,326.8,-0.8,1.8,2470.608,13.29,0.015,172.4
2021-06-02T01:31:03,42.805,6.029,0.003,0.006,0.019,101.0,102.0,101.0,13.4,1505.2,327.3,-0.7,1.8,2470.659,13.29,0.006,26.6
2021-06-02T01:34:03,42.805,6.029,0.0,-0.001,0.009,102.0,103.0,100.0,13.4,1505.2,327.4,-0.8,1.8,2470.626,13.29,0.001,180.0
2021-06-02T01:37:03,42.805,6.029,-0.012,-0.003,0.0,101.0,102.0,101.0,13.4,1505.2,327.8,-0.7,1.8,2470.576,13.29,0.012,256.0
2021-06-02T01:40:03,42.805,6.029,-0.014,-0.016,-0.013,102.0,103.0,101.0,13.4,1505.2,324.1,-0.7,1.8,2470.663,13.29,0.021,221.2
2021-06-02T01:43:03,42.805,6.029,0.0,-0.018,0.007,102.0,102.0,100.0,13.4,1505.2,328.1,-0.8,1.8,2470.638,13.29,0.018,180.0
2021-06-02T01:46:03,42.805,6.029,-0.021,0.007,-0.013,103.0,101.0,101.0,13.4,1505.2,326.8,-0.8,1.8,2470.567,13.29,0.022,288.4
2021-06-02T01:49:03,42.805,6.029,-0.002,0.0,0.011,102.0,101.0,101.0,13.4,1505.2,328.2,-0.8,1.8,2470.655,13.29,0.002,270.0
2021-06-02T01:52:03,42.805,6.029,0.014,-0.007,0.009,103.0,102.0,100.0,13.4,1505.2,325.9,-0.7,1.8,2470.626,13.29,0.015,116.6
2021-06-02T01:55:03,42.805,6.029,-0.009,-0.015,-0.001,101.0,102.0,102.0,13.3,1505.2,328.8,-0.8,1.8,2470.625,13.29,0.017,211.0
2021-06-02T01:58:03,42.805,6.029,0.014,0.007,0.005,103.0,101.0,101.0,13.4,1505.2,328.3,-0.8,1.8,2470.642,13.29,0.015,63.4
2021-06-02T02:04:03,42.805,6.029,0.005,-0.014,0.008,102.0,102.0,101.0,13.4,1505.2,325.4,-0.8,1.8,2470.678,13.28,0.014,160.4
2021-06-02T02:07:03,42.805,6.029,0.0,-0.005,0.0,103.0,101.0,100.0,13.4,1505.2,326.6,-0.7,1.8,2470.611,13.29,0.005,180.0
2021-06-02T02:10:03,42.805,6.029,-0.004,-0.012,0.021,101.0,102.0,100.0,13.4,1505.2,329.7,-0.7,1.8,2470.634,13.29,0.012,198.4
2021-06-02T02:13:03,42.805,6.029,0.016,-0.004,0.033,102.0,102.0,101.0,13.3,1505.2,327.9,-0.8,1.8,2470.659,13.29,0.016,104.0
2021-06-02T02:16:03,42.805,6.029,-0.011,-0.019,0.001,101.0,101.0,101.0,13.3,1505.2,325.2,-0.7,1.9,2470.635,13.29,0.021,210.1
2021-06-02T02:19:03,42.805,6.029,0.008,-0.006,0.026,102.0,101.0,100.0,13.4,1505.2,329.7,-0.7,1.8,2470.618,13.29,0.01,126.9
2021-06-02T02:22:03,42.805,6.029,-0.01,0.013,0.017,101.0,102.0,101.0,13.4,1505.2,326.0,-0.7,1.8,2470.615,13.29,0.016,322.4
2021-06-02T02:25:03,42.805,6.029,-0.012,-0.02,0.009,101.0,103.0,100.0,13.4,1505.2,327.9,-0.7,1.8,2470.651,13.29,0.023,211.0
2021-06-02T02:28:03,42.805,6.029,-0.006,-0.017,0.008,101.0,102.0,99.0,13.3,1505.2,328.5,-0.7,1.8,2470.608,13.29,0.018,199.4
2021-06-02T02:31:03,42.805,6.029,-0.007,-0.012,0.004,101.0,101.0,101.0,13.4,1505.2,329.2,-0.7,1.8,2470.612,13.29,0.013,210.3
2021-06-02T02:34:03,42.805,6.029,0.007,-0.005,0.04,101.0,104.0,100.0,13.3,1505.2,328.3,-0.8,1.8,2470.608,13.29,0.008,125.5
2021-06-02T02:37:03,42.805,6.029,-0.006,0.009,0.013,101.0,103.0,100.0,13.3,1505.2,329.3,-0.8,1.8,2470.613,13.29,0.01,326.3
2021-06-02T02:40:03,42.805,6.029,0.0,-0.007,0.028,101.0,101.0,100.0,13.4,1505.2,324.5,-0.7,1.8,2470.625,13.29,0.007,180.0
2021-06-02T02:43:03,42.805,6.029,0.004,-0.012,0.024,102.0,102.0,100.0,13.4,1505.2,327.0,-0.8,1.8,2470.607,13.29,0.012,161.6
2021-06-02T02:46:03,42.805,6.029,-0.013,0.0,0.015,101.0,103.0,99.0,13.4,1505.2,328.8,-0.7,1.8,2470.658,13.29,0.013,270.0
2021-06-02T02:49:03,42.805,6.029,-0.011,-0.011,0.034,102.0,100.0,101.0,13.3,1505.2,327.1,-0.7,1.8,2470.618,13.29,0.015,225.0
2021-06-02T02:52:03,42.805,6.029,-0.011,0.0,0.035,102.0,102.0,100.0,13.4,1505.2,325.4,-0.8,1.8,2470.611,13.29,0.011,270.0
2021-06-02T02:55:03,42.805,6.029,-0.007,-0.018,0.004,102.0,100.0,100.0,13.4,1505.2,327.2,-0.8,1.8,2470.627,13.29,0.019,201.2
2021-06-02T02:58:03,42.805,6.029,0.017,-0.014,0.003,99.0,102.0,101.0,13.4,1505.2,328.7,-0.7,1.8,2470.614,13.29,0.022,129.5
2021-06-02T03:04:03,42.805,6.029,-0.009,0.007,0.009,100.0,100.0,102.0,13.3,1505.2,328.5,-0.8,1.8,2470.614,13.28,0.011,307.9
2021-06-02T03:07:03,42.805,6.029,-0.009,0.008,0.01,102.0,102.0,100.0,13.4,1505.2,324.6,-0.8,1.8,2470.63,13.29,0.012,311.6
2021-06-02T03:10:03,42.805,6.029,-0.014,-0.008,0.002,101.0,101.0,100.0,13.4,1505.2,328.1,-0.8,1.8,2470.6,13.29,0.016,240.3
2021-06-02T03:13:03,42.805,6.029,-0.011,0.0,0.034,102.0,102.0,101.0,13.3,1505.2,325.7,-0.7,1.8,2470.601,13.29,0.011,270.0
2021-06-02T03:16:03,42.805,6.029,0.018,0.0,0.026,103.0,101.0,100.0,13.4,1505.2,329.8,-0.7,1.8,2470.619,13.29,0.018,90.0
2021-06-02T03:19:03,42.805,6.029,-0.004,-0.007,0.031,101.0,101.0,100.0,13.4,1505.2,329.6,-0.8,1.8,2470.638,13.29,0.008,209.7
2021-06-02T03:22:03,42.805,6.029,-0.004,0.019,0.018,101.0,101.0,100.0,13.4,1505.2,326.4,-0.7,1.9,2470.606,13.29,0.019,348.1
2021-06-02T03:25:03,42.805,6.029,-0.009,-0.01,0.002,102.0,101.0,100.0,13.4,1505.2,326.0,-0.7,1.8,2470.64,13.29,0.013,222.0
2021-06-02T03:28:03,42.805,6.029,-0.011,0.021,0.044,101.0,103.0,100.0,13.3,1505.2,328.8,-0.7,1.9,2470.622,13.29,0.023,332.4
2021-06-02T03:31:03,42.805,6.029,-0.016,0.009,0.011,101.0,103.0,99.0,13.3,1505.2,325.7,-0.7,1.8,2470.624,13.29,0.018,299.4
2021-06-02T03:34:03,42.805,6.029,-0.014,0.005,-0.002,102.0,102.0,101.0,13.4,1505.2,327.0,-0.7,1.8,2470.603,13.29,0.014,289.6
2021-06-02T03:37:03,42.805,6.029,0.01,-0.001,0.028,102.0,101.0,100.0,13.3,1505.2,326.3,-0.7,1.8,2470.599,13.29,0.01,95.7
2021-06-02T03:40:03,42.805,6.029,0.0,-0.016,-0.02,101.0,101.0,100.0,13.4,1505.2,327.6,-0.7,1.8,2470.583,13.29,0.016,180.0
2021-06-02T03:43:03,42.805,6.029,-0.007,0.0,0.011,102.0,102.0,101.0,13.3,1505.2,328.1,-0.8,1.8,2470.599,13.29,0.007,270.0
2021-06-02T03:46:03,42.805,6.029,-0.01,0.001,0.009,100.0,102.0,100.0,13.4,1505.2,330.1,-0.7,1.8,2470.601,13.29,0.01,275.7
2021-06-02T03:49:03,42.805,6.029,0.0,-0.024,-0.003,103.0,102.0,101.0,13.4,1505.2,324.4,-0.7,1.8,2470.617,13.29,0.024,180.0
2021-06-02T03:52:03,42.805,6.029,0.004,0.0,0.0,102.0,102.0,102.0,13.3,1505.2,328.2,-0.7,1.8,2470.602,13.29,0.004,90.0
2021-06-02T03:55:03,42.805,6.029,-0.005,-0.004,-0.001,103.0,102.0,100.0,13.4,1505.2,326.1,-0.7,1.9,2470.609,13.29,0.006,231.3
2021-06-02T03:58:03,42.805,6.029,-0.015,-0.001,0.012,101.0,102.0,102.0,13.4,1505.2,326.1,-0.7,1.8,2470.601,13.29,0.015,266.2
2021-06-02T04:04:03,42.805,6.029,-0.001,-0.014,0.007,102.0,101.0,101.0,13.3,1505.2,326.7,-0.8,1.8,2470.602,13.28,0.014,184.1
2021-06-02T04:07:03,42.805,6.029,0.005,-0.017,0.001,102.0,102.0,101.0,13.4,1505.2,325.6,-0.8,1.8,2470.618,13.28,0.017,163.6
2021-06-02T04:10:03,42.805,6.029,-0.012,0.011,0.016,103.0,102.0,100.0,13.3,1505.2,325.9,-0.8,1.9,2470.625,13.28,0.016,312.5
2021-06-02T04:13:03,42.805,6.029,-0.001,0.001,0.01,102.0,102.0,101.0,13.3,1505.2,328.7,-0.7,1.8,2470.593,13.28,0.001,315.0
2021-06-02T04:16:03,42.805,6.029,0.005,-0.002,0.005,102.0,102.0,101.0,13.4,1505.2,326.0,-0.7,1.9,2470.549,13.28,0.005,111.8
2021-06-02T04:19:03,42.805,6.029,-0.001,-0.023,-0.005,102.0,111.0,101.0,13.3,1505.2,327.5,-0.7,1.8,2470.588,13.29,0.023,182.5
2021-06-02T04:22:03,42.805,6.029,0.009,-0.008,0.004,102.0,103.0,101.0,13.3,1505.2,325.9,-0.8,1.8,2470.591,13.29,0.012,131.6
2021-06-02T04:25:03,42.805,6.029,0.0,-0.024,0.018,103.0,103.0,101.0,13.3,1505.2,330.2,-0.7,1.9,2470.6,13.29,0.024,180.0
2021-06-02T04:28:03,42.805,6.029,-0.003,0.023,0.013,103.0,102.0,100.0,13.3,1505.2,324.3,-0.7,1.8,2470.57,13.29,0.023,352.6
2021-06-02T04:31:03,42.805,6.029,0.007,0.004,0.017,103.0,105.0,101.0,13.4,1505.2,326.9,-0.8,1.8,2470.606,13.29,0.008,60.3
2021-06-02T04:34:03,42.805,6.029,-0.001,-0.011,0.033,102.0,101.0,102.0,13.4,1505.2,328.9,-0.8,1.8,2470.56,13.29,0.011,185.2
2021-06-02T04:37:03,42.805,6.029,-0.011,-0.006,0.023,102.0,102.0,101.0,13.3,1505.2,324.6,-0.7,1.8,2470.554,13.29,0.012,241.4
2021-06-02T04:40:03,42.805,6.029,-0.001,-0.003,0.017,101.0,101.0,101.0,13.3,1505.2,325.9,-0.7,1.8,2470.554,13.29,0.003,198.4
2021-06-02T04:43:03,42.805,6.029,-0.006,0.01,0.018,103.0,102.0,101.0,13.4,1505.2,326.7,-0.8,1.8,2470.573,13.29,0.011,329.0
2021-06-02T04:46:03,42.805,6.029,-0.005,-0.023,-0.003,104.0,101.0,101.0,13.3,1505.2,328.2,-0.8,1.8,2470.562,13.29,0.023,192.3
2021-06-02T04:49:03,42.805,6.029,-0.004,-0.018,0.033,103.0,102.0,100.0,13.3,1505.2,328.5,-0.8,1.9,2470.543,13.29,0.018,192.5
2021-06-02T04:52:03,42.805,6.029,-0.01,-0.005,0.003,103.0,102.0,101.0,13.4,1505.2,326.2,-0.8,1.9,2470.549,13.29,0.011,243.4
2021-06-02T04:55:03,42.805,6.029,0.01,-0.017,0.01,104.0,102.0,100.0,13.4,1505.2,329.7,-0.7,1.8,2470.547,13.29,0.019,149.5
2021-06-02T04:58:03,42.805,6.029,0.002,-0.005,0.019,102.0,103.0,101.0,13.4,1505.2,328.5,-0.8,1.8,2470.528,13.29,0.005,158.2
2021-06-02T05:04:03,42.805,6.029,-0.015,-0.005,-0.01,101.0,103.0,102.0,13.4,1505.2,327.9,-0.8,1.8,2470.528,13.28,0.015,251.6
2021-06-02T05:07:03,42.805,6.029,-0.001,-0.006,-0.007,103.0,103.0,100.0,13.4,1505.2,328.1,-0.8,1.8,2470.574,13.28,0.006,189.5
2021-06-02T05:10:03,42.805,6.029,-0.004,-0.01,0.012,101.0,102.0,100.0,13.4,1505.2,326.6,-0.8,1.8,2470.565,13.28,0.01,201.8
2021-06-02T05:13:03,42.805,6.029,0.003,-0.015,0.003,102.0,102.0,100.0,13.3,1505.2,327.0,-0.7,1.8,2470.512,13.28,0.015,168.7
2021-06-02T05:16:03,42.805,6.029,-0.021,-0.007,0.015,102.0,102.0,101.0,13.4,1505.2,326.5,-0.7,1.8,2470.474,13.28,0.022,251.6
2021-06-02T05:19:03,42.805,6.029,0.0,-0.001,0.011,103.0,102.0,100.0,13.3,1505.2,329.4,-0.7,1.8,2470.486,13.28,0.001,180.0
2021-06-02T05:22:03,42.805,6.029,0.012,0.024,0.003,103.0,103.0,102.0,13.4,1505.2,327.5,-0.8,1.8,2470.508,13.28,0.026,26.6
2021-06-02T05:25:03,42.805,6.029,-0.005,-0.008,0.011,102.0,103.0,101.0,13.4,1505.2,329.3,-0.7,1.8,2470.473,13.28,0.009,212.0
2021-06-02T05:28:03,42.805,6.029,0.0,-0.006,0.014,102.0,103.0,102.0,13.4,1505.2,325.3,-0.8,1.8,2470.505,13.28,0.006,180.0
2021-06-02T05:31:03,42.805,6.029,0.001,0.01,0.012,104.0,103.0,101.0,13.4,1505.2,326.0,-0.7,1.8,2470.508,13.28,0.01,5.7
2021-06-02T05:34:03,42.805,6.029,0.009,-0.014,0.021,101.0,103.0,101.0,13.3,1505.2,326.0,-0.7,1.9,2470.479,13.28,0.016,147.3
2021-06-02T05:37:03,42.805,6.029,0.005,-0.008,-0.011,103.0,102.0,100.0,13.4,1505.2,327.9,-0.8,1.8,2470.517,13.28,0.009,148.0
2021-06-02T05:40:03,42.805,6.029,-0.004,-0.007,0.002,102.0,103.0,101.0,13.4,1505.2,328.4,-0.8,1.8,2470.504,13.28,0.008,209.7
2021-06-02T05:43:03,42.805,6.029,-0.018,-0.008,0.009,103.0,102.0,101.0,13.4,1505.2,329.2,-0.7,1.8,2470.482,13.28,0.019,246.0
2021-06-02T05:46:03,42.805,6.029,-0.026,-0.009,-0.016,102.0,102.0,101.0,13.3,1505.2,328.9,-0.8,1.8,2470.479,13.28,0.027,250.9
2021-06-02T05:49:03,42.805,6.029,-0.017,0.009,0.027,103.0,102.0,101.0,13.4,1505.2,329.1,-0.8,1.8,2470.417,13.28,0.019,297.9
2021-06-02T05:52:03,42.805,6.029,0.005,-0.003,0.008,102.0,102.0,102.0,13.4,1505.2,328.2,-0.7,1.8,2470.494,13.28,0.005,121.0
2021-06-02T05:55:03,42.805,6.029,-0.008,-0.007,0.039,102.0,102.0,101.0,13.4,1505.2,328.8,-0.8,1.8,2470.461,13.28,0.01,228.8
2021-06-02T05:58:03,42.805,6.029,0.006,-0.007,0.016,103.0,102.0,101.0,13.4,1505.2,324.9,-0.8,1.8,2470.487,13.28,0.009,139.4
2021-06-02T06:04:03,42.805,6.029,-0.01,-0.026,0.0,102.0,102.0,101.0,13.4,1505.2,329.2,-0.8,1.9,2470.513,13.28,0.027,201.0
2021-06-02T06:07:03,42.805,6.029,0.008,-0.01,-0.011,102.0,103.0,102.0,13.4,1505.2,324.9,-0.7,1.8,2470.495,13.28,0.012,141.3
2021-06-02T06:10:03,42.805,6.029,-0.008,0.002,0.007,103.0,102.0,102.0,13.3,1505.2,324.6,-0.7,1.8,2470.483,13.28,0.008,284.0
2021-06-02T06:13:03,42.805,6.029,0.013,-0.013,0.0,103.0,103.0,101.0,13.4,1505.2,328.1,-0.8,1.8,2470.461,13.28,0.018,135.0
2021-06-02T06:16:03,42.805,6.029,0.0,0.0,0.001,101.0,102.0,101.0,13.4,1505.2,327.5,-0.8,1.8,2470.498,13.28,0.0,0.0
2021-06-02T06:19:03,42.805,6.029,-0.001,-0.017,-0.012,103.0,103.0,101.0,13.4,1505.2,329.4,-0.8,1.8,2470.467,13.28,0.017,183.4
2021-06-02T06:22:03,42.805,6.029,-0.013,0.015,0.018,102.0,102.0,101.0,13.3,1505.2,327.4,-0.8,1.8,2470.46,13.28,0.019,319.1
2021-06-02T06:25:03,42.805,6.029,-0.022,-0.019,-0.012,102.0,101.0,102.0,13.4,1505.2,329.4,-0.7,1.8,2470.516,13.28,0.029,229.2
2021-06-02T06:28:03,42.805,6.029,0.0,0.001,0.0,103.0,102.0,101.0,13.3,1505.2,326.6,-0.7,1.8,2470.489,13.28,0.001,0.0
2021-06-02T06:31:03,42.805,6.029,-0.001,-0.013,-0.021,102.0,104.0,101.0,13.3,1505.2,326.4,-0.7,1.8,2470.475,13.28,0.013,184.4
2021-06-02T06:34:03,42.805,6.029,-0.004,-0.015,0.008,101.0,104.0,101.0,13.4,1505.2,327.0,-0.8,1.8,2470.515,13.28,0.015,194.9
2021-06-02T06:37:03,42.805,6.029,-0.002,-0.004,0.015,102.0,102.0,102.0,13.4,1505.2,328.6,-0.7,1.8,2470.489,13.28,0.004,206.6
2021-06-02T06:40:03,42.805,6.029,0.001,-0.001,0.007,102.0,102.0,102.0,13.4,1505.2,325.2,-0.7,1.8,2470.46,13.28,0.001,135.0
2021-06-02T06:43:03,42.805,6.029,0.002,-0.009,0.001,102.0,103.0,101.0,13.3,1505.2,325.8,-0.7,1.9,2470.469,13.28,0.009,167.5
2021-06-02T06:46:03,42.805,6.029,0.002,-0.011,-0.008,103.0,103.0,101.0,13.4,1505.2,324.8,-0.7,1.8,2470.487,13.28,0.011,169.7
2021-06-02T06:49:03,42.805,6.029,0.008,-0.01,0.012,104.0,103.0,101.0,13.4,1505.2,324.6,-0.7,1.8,2470.469,13.28,0.012,141.3
2021-06-02T06:52:03,42.805,6.029,0.002,-0.043,0.009,102.0,102.0,101.0,13.4,1505.2,328.4,-0.7,1.8,2470.459,13.28,0.043,177.3
2021-06-02T06:55:03,42.805,6.029,0.012,-0.005,0.011,103.0,102.0,101.0,13.4,1505.2,325.9,-0.8,1.8,2470.494,13.28,0.013,112.6
2021-06-02T06:58:03,42.805,6.029,0.025,-0.019,0.012,103.0,102.0,102.0,13.3,1505.2,324.9,-0.8,1.8,2470.444,13.28,0.031,127.2
2021-06-02T07:04:03,42.805,6.029,-0.013,0.002,0.01,102.0,105.0,101.0,13.4,1505.2,326.5,-0.7,1.8,2470.563,13.28,0.013,278.7
2021-06-02T07:07:03,42.805,6.029,-0.005,-0.013,-0.005,102.0,102.0,102.0,13.3,1505.2,327.8,-0.7,1.8,2470.551,13.28,0.013,201.0
2021-06-02T07:10:03,42.805,6.029,-0.03,-0.008,0.016,102.0,103.0,102.0,13.4,1505.2,324.5,-0.8,1.8,2470.521,13.28,0.031,255.1
2021-06-02T07:13:03,42.805,6.029,-0.001,-0.027,-0.02,103.0,102.0,100.0,13.4,1505.2,327.7,-0.7,1.8,2470.507,13.28,0.027,182.1
2021-06-02T07:16:03,42.805,6.029,0.006,-0.018,0.017,102.0,103.0,102.0,13.3,1505.2,327.5,-0.7,1.8,2470.56,13.28,0.018,161.6
2021-06-02T07:19:03,42.805,6.029,0.017,0.007,0.011,102.0,103.0,101.0,13.4,1505.2,326.3,-0.8,1.8,2470.536,13.28,0.018,67.6
2021-06-02T07:22:03,42.805,6.029,-0.012,0.004,0.008,103.0,103.0,101.0,13.4,1505.2,326.4,-0.8,1.8,2470.526,13.28,0.012,288.4
2021-06-02T07:25:03,42.805,6.029,-0.027,-0.011,0.015,104.0,104.0,101.0,13.4,1505.2,326.4,-0.7,1.8,2470.496,13.28,0.029,247.8
2021-06-02T07:28:03,42.805,6.029,0.012,-0.018,-0.004,104.0,102.0,101.0,13.4,1505.2,327.6,-0.8,1.8,2470.476,13.28,0.021,146.3
2021-06-02T07:31:03,42.805,6.029,0.004,-0.012,-0.025,104.0,102.0,102.0,13.4,1505.2,327.7,-0.7,1.8,2470.506,13.28,0.012,161.6
2021-06-02T07:34:03,42.805,6.029,-0.015,-0.012,-0.014,104.0,102.0,101.0,13.4,1505.2,329.2,-0.8,1.8,2470.504,13.28,0.019,231.3
2021-06-02T07:37:03,42.805,6.029,-0.007,-0.012,0.0,103.0,102.0,100.0,13.4,1505.2,326.7,-0.8,1.8,2470.521,13.28,0.013,210.3
2021-06-02T07:40:03,42.805,6.029,0.005,0.003,0.024,104.0,102.0,101.0,13.3,1505.2,329.1,-0.7,1.8,2470.492,13.28,0.005,59.0
2021-06-02T07:43:03,42.805,6.029,-0.008,0.0,0.006,104.0,103.0,101.0,13.4,1505.2,326.4,-0.7,1.8,2470.496,13.28,0.008,270.0
2021-06-02T07:46:03,42.805,6.029,-0.007,-0.005,0.019,104.0,102.0,100.0,13.4,1505.2,328.7,-0.7,1.8,2470.503,13.28,0.008,234.5
2021-06-02T07:49:03,42.805,6.029,-0.004,0.0,0.008,102.0,103.0,101.0,13.3,1505.2,328.7,-0.7,1.8,2470.512,13.28,0.004,270.0
2021-06-02T07:52:03,42.805,6.029,0.005,-0.008,0.002,104.0,102.0,101.0,13.4,1505.2,329.8,-0.8,1.8,2470.487,13.28,0.009,148.0
2021-06-02T07:55:03,42.805,6.029,-0.008,-0.014,0.021,104.0,103.0,100.0,13.4,1505.2,327.2,-0.7,1.8,2470.533,13.28,0.016,209.7
2021-06-02T07:58:03,42.805,6.029,-0.015,0.002,-0.008,103.0,102.0,104.0,13.4,1505.2,329.2,-0.7,1.9,2470.511,13.28,0.015,277.6
2021-06-02T08:04:03,42.805,6.029,0.0,-0.003,-0.012,103.0,104.0,102.0,13.4,1505.2,325.5,-0.7,1.8,2470.556,13.28,0.003,180.0
2021-06-02T08:07:03,42.805,6.029,0.004,0.004,0.043,102.0,107.0,100.0,13.4,1505.2,328.2,-0.8,1.8,2470.525,13.28,0.005,45.0
2021-06-02T08:10:03,42.805,6.029,-0.015,-0.016,-0.015,102.0,103.0,101.0,13.4,1505.2,326.8,-0.8,1.8,2470.486,13.28,0.021,223.1
2021-06-02T08:13:03,42.805,6.029,-0.006,-0.008,-0.008,104.0,105.0,101.0,13.4,1505.2,328.7,-0.8,1.8,2470.473,13.28,0.01,216.9
2021-06-02T08:16:03,42.805,6.029,0.006,-0.013,0.0,104.0,103.0,100.0,13.4,1505.2,326.0,-0.8,1.8,2470.512,13.28,0.014,155.2
2021-06-02T08:19:03,42.805,6.029,-0.012,-0.011,-0.008,103.0,102.0,101.0,13.3,1505.2,324.6,-0.8,1.8,2470.534,13.28,0.016,227.5
2021-06-02T08:22:03,42.805,6.029,-0.006,-0.016,-0.014,103.0,103.0,101.0,13.4,1505.2,329.3,-0.8,1.8,2470.512,13.28,0.017,200.6
2021-06-02T08:25:03,42.805,6.029,0.0,0.003,0.01,104.0,104.0,101.0,13.4,1505.2,329.0,-0.8,1.8,2470.509,13.28,0.003,0.0
2021-06-02T08:28:03,42.805,6.029,-0.005,-0.003,0.014,103.0,102.0,102.0,13.4,1505.2,324.4,-0.8,1.8,2470.509,13.28,0.005,239.0
2021-06-02T08:31:03,42.805,6.029,0.0,-0.019,-0.006,105.0,102.0,102.0,13.3,1505.2,327.3,-0.7,1.8,2470.502,13.29,0.019,180.0
2021-06-02T08:34:03,42.805,6.029,-0.01,-0.011,-0.005,102.0,103.0,102.0,13.3,1505.2,329.2,-0.7,1.8,2470.521,13.29,0.014,222.3
2021-06-02T08:37:03,42.805,6.029,0.015,0.001,0.0,105.0,103.0,101.0,13.4,1505.2,326.5,-0.7,1.8,2470.489,13.29,0.015,86.2
2021-06-02T08:40:03,42.805,6.029,-0.006,-0.013,0.003,103.0,104.0,99.0,13.3,1505.2,330.0,-0.7,1.8,2470.495,13.29,0.014,204.8
2021-06-02T08:43:03,42.805,6.029,-0.015,-0.001,-0.031,103.0,103.0,101.0,13.4,1505.2,327.8,-0.7,1.8,2470.495,13.29,0.015,266.2
2021-06-02T08:46:03,42.805,6.029,0.009,-0.036,-0.009,104.0,104.0,101.0,13.4,1505.2,327.0,-0.8,1.8,2470.47,13.29,0.037,166.0
2021-06-02T08:49:03,42.805,6.029,-0.011,-0.015,0.009,102.0,103.0,102.0,13.4,1505.2,326.9,-0.7,1.8,2470.462,13.29,0.018,216.3
2021-06-02T08:52:03,42.805,6.029,0.01,-0.003,0.022,105.0,102.0,100.0,13.4,1505.2,324.3,-0.7,1.8,2470.423,13.29,0.01,106.7
2021-06-02T08:55:03,42.805,6.029,-0.002,-0.001,-0.004,108.0,106.0,102.0,13.3,1505.2,325.7,-0.7,1.8,2470.488,13.29,0.002,243.4
2021-06-02T08:58:03,42.805,6.029,0.008,0.001,-0.013,103.0,103.0,101.0,13.4,1505.2,325.0,-0.8,1.8,2470.464,13.29,0.008,82.9
2021-06-02T09:04:03,42.805,6.029,0.015,-0.005,0.003,104.0,103.0,101.0,13.3,1505.2,324.8,-0.7,1.8,2470.489,13.29,0.015,108.4
2021-06-02T09:07:03,42.805,6.029,0.008,-0.013,0.017,102.0,104.0,104.0,13.3,1505.2,328.3,-0.7,1.8,2470.457,13.29,0.015,148.4
2021-06-02T09:10:03,42.805,6.029,-0.001,-0.012,-0.019,105.0,104.0,101.0,13.3,1505.2,327.1,-0.7,1.8,2470.508,13.29,0.012,184.8
2021-06-02T09:13:03,42.805,6.029,0.002,-0.019,0.025,103.0,102.0,101.0,13.4,1505.2,328.4,-0.8,1.8,2470.487,13.29,0.019,174.0
2021-06-02T09:16:03,42.805,6.029,0.008,-0.012,0.02,105.0,103.0,100.0,13.4,1505.2,325.7,-0.8,1.9,2470.454,13.29,0.014,146.3
2021-06-02T09:19:03,42.805,6.029,-0.007,0.001,0.01,103.0,102.0,101.0,13.4,1505.2,327.1,-0.7,1.8,2470.481,13.29,0.007,278.1
2021-06-02T09:22:03,42.805,6.029,-0.009,-0.001,0.029,105.0,103.0,101.0,13.3,1505.2,324.8,-0.7,1.8,2470.489,13.29,0.009,263.7
2021-06-02T09:25:03,42.805,6.029,-0.015,-0.012,-0.001,103.0,104.0,101.0,13.4,1505.2,325.7,-0.7,1.8,2470.476,13.29,0.019,231.3
2021-06-02T09:28:03,42.805,6.029,-0.002,-0.008,0.027,104.0,103.0,101.0,13.3,1505.2,324.6,-0.8,1.8,2470.497,13.29,0.008,194.0
2021-06-02T09:31:03,42.805,6.029,-0.001,0.001,-0.006,105.0,103.0,101.0,13.4,1505.2,325.6,-0.7,1.8,2470.487,13.29,0.001,315.0
2021-06-02T09:34:03,42.805,6.029,0.004,-0.015,-0.021,103.0,103.0,102.0,13.4,1505.2,329.0,-0.8,1.8,2470.496,13.29,0.015,165.1
2021-06-02T09:37:03,42.805,6.029,-0.02,-0.013,-0.002,103.0,105.0,101.0,13.4,1505.2,325.2,-0.7,1.8,2470.47,13.29,0.023,237.0
2021-06-02T09:40:03,42.805,6.029,-0.009,0.0,0.007,103.0,103.0,102.0,13.4,1505.2,326.5,-0.7,1.8,2470.52,13.29,0.009,270.0
2021-06-02T09:43:03,42.805,6.029,-0.002,-0.005,0.018,105.0,104.0,101.0,13.4,1505.2,328.7,-0.8,1.8,2470.492,13.29,0.005,201.8
2021-06-02T09:46:03,42.805,6.029,-0.003,0.005,0.007,104.0,104.0,101.0,13.4,1505.2,326.0,-0.8,1.8,2470.522,13.29,0.005,329.0
2021-06-02T09:49:03,42.805,6.029,0.007,-0.01,0.025,104.0,102.0,102.0,13.4,1505.2,329.8,-0.8,1.8,2470.482,13.29,0.012,145.0
2021-06-02T09:52:03,42.805,6.029,0.016,-0.02,0.02,104.0,103.0,102.0,13.3,1505.2,328.0,-0.7,1.8,2470.491,13.29,0.025,141.3
2021-06-02T09:55:03,42.805,6.029,0.004,0.003,-0.016,103.0,104.0,102.0,13.3,1505.2,328.3,-0.8,1.8,2470.492,13.29,0.005,53.1
2021-06-02T09:58:03,42.805,6.029,-0.001,-0.004,0.017,104.0,103.0,102.0,13.3,1505.2,328.0,-0.7,1.8,2470.508,13.29,0.004,194.0